Gulf Shores, AL

12:45 PM CDT on April 26, 2017 (GMT -0500)
Edwards

Weather History for KJKA - May, 2014

Change the Weather History Date:

Saturday, May 3, 2014

  Actual Average (KNPA) Record (KNPA)
Temperature  
Mean Temperature 67 °F -  
Max Temperature 79 °F 78 °F 88 °F (2002)
Min Temperature 55 °F 61 °F 51 °F (2004)
Cooling Degree Days 2    
Growing Degree Days 17 (Base 50)    
Moisture  
Dew Point 52 °F    
Average Humidity 62    
Maximum Humidity 93    
Minimum Humidity 30    
Precipitation  
Precipitation 0.00 in - - ()
Sea Level Pressure  
Sea Level Pressure 30.05 in    
Wind  
Wind Speed 3 mph (WNW)    
Max Wind Speed 15 mph    
Max Gust Speed 18 mph    
Visibility 10 miles    
Events      
Averages and records for this station are not official NWS values.
T = Trace of Precipitation, MM = Missing Value Source: NWS Daily Summary

Daily Weather History Graph

Daily Weather History Graph

Search for Another Location

Airport or City:

Trip Planner

Search our weather history database for the weather conditions in past years. The results will help you decide how hot, cold, wet, or windy it might be!

Date:

Astronomy

May. 03, 2014 Rise Set
Actual Time 6:05 AM CDT 7:29 PM CDT
Civil Twilight 5:40 AM CDT 7:55 PM CDT
Nautical Twilight 5:09 AM CDT 8:26 PM CDT
Astronomical Twilight 4:37 AM CDT 8:57 PM CDT
Moon 9:38 AM CDT (5/3) 11:33 PM CDT (5/3)
Length of Visible Light 14h 15m
Length of Day
13h 24m
Waxing Crescent, 20% of the Moon is Illuminated
May 3
Waxing Crescent
May 6
First Quarter
May 14
Full
May 21
Last Quarter
May 28
New

Hourly Weather History & Observations

Time (CDT) Temp. Dew Point Humidity Pressure Visibility Wind Dir Wind Speed Gust Speed Precip Events Conditions
12:15 AM 63.5 °F 55.6 °F 75% 29.99 in 10.0 mi Calm Calm - N/A   Mostly Cloudy
12:35 AM 63.5 °F 55.2 °F 74% 29.98 in 10.0 mi Calm Calm - N/A   Scattered Clouds
12:55 AM 63.1 °F 54.9 °F 74% 29.99 in 10.0 mi Calm Calm - N/A   Scattered Clouds
1:15 AM 62.6 °F 55.4 °F 77% 29.99 in 10.0 mi Calm Calm - N/A   Scattered Clouds
1:35 AM 62.2 °F 55.4 °F 78% 29.99 in 10.0 mi Calm Calm - N/A   Mostly Cloudy
1:55 AM 61.3 °F 55.6 °F 81% 29.99 in 10.0 mi Calm Calm - N/A   Mostly Cloudy
2:15 AM 60.8 °F 56.5 °F 86% 30.00 in 10.0 mi Calm Calm - N/A   Overcast
2:35 AM 61.5 °F 56.3 °F 83% 30.00 in 10.0 mi Calm Calm - N/A   Overcast
2:55 AM 60.8 °F 56.1 °F 85% 30.00 in 10.0 mi Calm Calm - N/A   Mostly Cloudy
3:15 AM 61.3 °F 55.8 °F 82% 29.99 in 10.0 mi Calm Calm - N/A   Mostly Cloudy
3:35 AM 60.8 °F 56.7 °F 86% 30.01 in 10.0 mi Calm Calm - N/A   Mostly Cloudy
3:55 AM 61.0 °F 55.6 °F 82% 30.01 in 10.0 mi NW 3.5 mph - N/A   Scattered Clouds
4:15 AM 60.8 °F 54.1 °F 79% 30.00 in 10.0 mi NNW 3.5 mph - N/A   Clear
4:35 AM 60.3 °F 54.0 °F 80% 30.00 in 10.0 mi NNW 3.5 mph - N/A   Clear
4:55 AM 59.9 °F 53.6 °F 80% 30.00 in 10.0 mi Calm Calm - N/A   Clear
5:15 AM 58.8 °F 52.9 °F 81% 30.00 in 10.0 mi NNW 3.5 mph - N/A   Clear
5:35 AM 58.3 °F 52.7 °F 82% 30.01 in 10.0 mi Calm Calm - N/A   Clear
5:55 AM 57.7 °F 52.0 °F 81% 30.01 in 10.0 mi NNW 3.5 mph - N/A   Clear
6:15 AM 56.7 °F 52.7 °F 87% 30.02 in 10.0 mi Calm Calm - N/A   Clear
6:35 AM 56.7 °F 52.3 °F 85% 30.03 in 10.0 mi Calm Calm - N/A   Clear
6:55 AM 55.2 °F 53.2 °F 93% 30.04 in 10.0 mi Calm Calm - N/A   Clear
7:15 AM 58.6 °F 55.4 °F 89% 30.05 in 10.0 mi Calm Calm - N/A   Clear
7:35 AM 61.7 °F 52.5 °F 72% 30.05 in 10.0 mi NNW 3.5 mph - N/A   Clear
7:55 AM 63.3 °F 52.0 °F 66% 30.05 in 10.0 mi NW 4.6 mph - N/A   Clear
8:15 AM 64.8 °F 51.1 °F 61% 30.06 in 10.0 mi NNW 4.6 mph - N/A   Clear
8:35 AM 66.7 °F 52.5 °F 60% 30.06 in 10.0 mi Calm Calm - N/A   Clear
8:55 AM 68.2 °F 50.7 °F 54% 30.07 in 10.0 mi NNW 3.5 mph - N/A   Clear
9:15 AM 69.6 °F 49.6 °F 49% 30.07 in 10.0 mi NNW 5.8 mph - N/A   Clear
9:35 AM 70.9 °F 47.5 °F 43% 30.07 in 10.0 mi NNW 6.9 mph - N/A   Clear
9:55 AM 72.1 °F 45.3 °F 38% 30.07 in 10.0 mi NNW 4.6 mph - N/A   Clear
10:15 AM 73.9 °F 45.0 °F 35% 30.08 in 10.0 mi NW 8.1 mph - N/A   Clear
10:35 AM 73.8 °F 43.7 °F 34% 30.08 in 10.0 mi NW 4.6 mph - N/A   Clear
10:55 AM 74.8 °F 44.6 °F 34% 30.09 in 10.0 mi North 5.8 mph - N/A   Clear
11:15 AM 76.1 °F 45.7 °F 34% 30.09 in 10.0 mi NW 8.1 mph - N/A   Clear
11:35 AM 76.1 °F 44.8 °F 33% 30.09 in 10.0 mi North 5.8 mph - N/A   Clear
11:55 AM 75.6 °F 42.3 °F 30% 30.09 in 10.0 mi Calm Calm - N/A   Clear
12:15 PM 76.3 °F 43.3 °F 31% 30.08 in 10.0 mi NW 5.8 mph - N/A   Clear
12:35 PM 76.8 °F 43.0 °F 30% 30.08 in 10.0 mi NNW 9.2 mph 18.4 mph N/A   Clear
12:55 PM 76.3 °F 42.6 °F 30% 30.07 in 10.0 mi Calm Calm - N/A   Clear
1:15 PM 76.8 °F 43.5 °F 30% 30.07 in 10.0 mi NNW 6.9 mph - N/A   Scattered Clouds
1:35 PM 77.5 °F 45.3 °F 32% 30.07 in 10.0 mi NW 5.8 mph - N/A   Scattered Clouds
1:55 PM 77.5 °F 49.5 °F 37% 30.06 in 10.0 mi West 10.4 mph - N/A   Scattered Clouds
2:15 PM 75.9 °F 47.8 °F 37% 30.06 in 10.0 mi West 10.4 mph - N/A   Scattered Clouds
2:35 PM 77.0 °F 48.0 °F 36% 30.05 in 10.0 mi WSW 9.2 mph - N/A   Scattered Clouds
2:55 PM 78.4 °F 47.8 °F 34% 30.04 in 10.0 mi West 9.2 mph 17.3 mph N/A   Mostly Cloudy
3:15 PM 79.5 °F 49.5 °F 35% 30.03 in 10.0 mi West 12.7 mph - N/A   Mostly Cloudy
3:35 PM 77.9 °F 49.8 °F 37% 30.03 in 10.0 mi West 11.5 mph 16.1 mph N/A   Scattered Clouds
3:55 PM 76.8 °F 49.6 °F 38% 30.03 in 10.0 mi West 15.0 mph - N/A   Clear
4:15 PM 77.0 °F 48.9 °F 37% 30.03 in 10.0 mi West 13.8 mph - N/A   Clear
4:35 PM 77.0 °F 48.9 °F 37% 30.03 in 10.0 mi West 10.4 mph - N/A   Clear
4:55 PM 76.1 °F 47.5 °F 36% 30.03 in 10.0 mi West 12.7 mph - N/A   Clear
5:15 PM 76.1 °F 49.3 °F 39% 30.03 in 10.0 mi West 10.4 mph - N/A   Clear
5:35 PM 75.4 °F 49.6 °F 40% 30.03 in 10.0 mi West 12.7 mph - N/A   Clear
5:55 PM 74.5 °F 51.4 °F 44% 30.03 in 10.0 mi West 12.7 mph - N/A   Clear
6:15 PM 73.8 °F 52.3 °F 47% 30.03 in 10.0 mi West 10.4 mph - N/A   Clear
6:35 PM 72.9 °F 54.5 °F 52% 30.04 in 10.0 mi WSW 10.4 mph - N/A   Clear
6:55 PM 71.4 °F 54.5 °F 55% 30.04 in 10.0 mi WSW 6.9 mph - N/A   Clear
7:15 PM 69.8 °F 55.8 °F 61% 30.05 in 10.0 mi WSW 4.6 mph - N/A   Clear
7:35 PM 66.4 °F 56.5 °F 70% 30.06 in 10.0 mi WSW 4.6 mph - N/A   Clear
7:55 PM 65.5 °F 56.8 °F 74% 30.06 in 10.0 mi WSW 3.5 mph - N/A   Clear
8:15 PM 66.4 °F 56.7 °F 71% 30.07 in 10.0 mi Calm Calm - N/A   Clear
8:35 PM 65.5 °F 57.4 °F 75% 30.07 in 10.0 mi Calm Calm - N/A   Clear
8:55 PM 65.7 °F 58.5 °F 78% 30.07 in 10.0 mi West 3.5 mph - N/A   Clear
9:15 PM 65.1 °F 58.5 °F 79% 30.08 in 10.0 mi West 3.5 mph - N/A   Clear
9:35 PM 63.3 °F 58.5 °F 84% 30.08 in 10.0 mi West 4.6 mph - N/A   Clear
9:55 PM 63.5 °F 59.4 °F 86% 30.09 in 10.0 mi WSW 3.5 mph - N/A   Clear
10:15 PM 64.4 °F 59.9 °F 85% 30.10 in 10.0 mi Calm Calm - N/A   Clear
10:35 PM 64.0 °F 59.9 °F 86% 30.10 in 10.0 mi West 3.5 mph - N/A   Clear
10:55 PM 63.5 °F 59.7 °F 87% 30.10 in 10.0 mi Calm Calm - N/A   Clear
11:15 PM 63.7 °F 59.9 °F 87% 30.10 in 10.0 mi Calm Calm - N/A   Clear
11:35 PM 63.1 °F 59.4 °F 87% 30.11 in 10.0 mi Calm Calm - N/A   Clear
11:55 PM 62.8 °F 59.9 °F 90% 30.11 in 10.0 mi Calm Calm - N/A   Clear